TimeCST,TemperatureF,Dew PointF,Humidity,Sea Level PressureIn,VisibilityMPH,Wind Direction,Wind SpeedMPH,Gust SpeedMPH,PrecipitationIn,Events,Conditions,WindDirDegrees,DateUTC
12:01 AM,57.2,57.2,100,30.08,1.0,Calm,Calm,-,N/A,,Mist,0,2012-11-04 05:01:00
12:05 AM,57.2,57.2,100,30.08,0.2,Calm,Calm,-,N/A,Fog,Fog,0,2012-11-04 05:05:00
12:19 AM,55.4,55.4,100,30.08,0.5,Calm,Calm,-,N/A,Fog,Fog,0,2012-11-04 05:19:00
12:28 AM,59.0,59.0,100,30.08,0.2,Calm,Calm,-,N/A,Fog,Fog,0,2012-11-04 05:28:00
12:35 AM,59.0,59.0,100,30.08,1.2,Calm,Calm,-,N/A,,Clear,0,2012-11-04 05:35:00
12:38 AM,59.0,59.0,100,30.08,4.0,Calm,Calm,-,N/A,,Clear,0,2012-11-04 05:38:00
12:47 AM,60.8,60.8,100,30.08,1.8,Calm,Calm,-,N/A,,Clear,0,2012-11-04 05:47:00
12:56 AM,57.9,57.9,100,30.08,4.0,Calm,Calm,-,N/A,,Clear,0,2012-11-04 05:56:00
1:56 AM,59.0,59.0,100,30.08,3.0,Calm,Calm,-,N/A,,Clear,0,2012-11-04 06:56:00
1:08 AM,59.0,59.0,100,30.07,2.5,Calm,Calm,-,N/A,,Scattered Clouds,0,2012-11-04 07:08:00
1:10 AM,59.0,59.0,100,30.07,1.0,Calm,Calm,-,N/A,,Mist,0,2012-11-04 07:10:00
1:14 AM,57.2,57.2,100,30.07,0.2,Calm,Calm,-,N/A,Fog,Fog,0,2012-11-04 07:14:00
1:26 AM,59.0,59.0,100,30.07,0.5,Calm,Calm,-,N/A,Fog,Fog,0,2012-11-04 07:26:00
1:31 AM,60.8,60.8,100,30.07,0.2,Calm,Calm,-,N/A,Fog,Fog,0,2012-11-04 07:31:00
1:34 AM,59.0,59.0,100,30.07,0.5,Calm,Calm,-,N/A,Fog,Fog,0,2012-11-04 07:34:00
1:45 AM,57.2,57.2,100,30.07,0.2,Calm,Calm,-,N/A,Fog,Fog,0,2012-11-04 07:45:00
1:56 AM,57.0,57.0,100,30.07,0.2,Calm,Calm,-,N/A,Fog,Fog,0,2012-11-04 07:56:00
2:08 AM,57.2,57.2,100,30.07,1.0,Calm,Calm,-,N/A,,Mist,0,2012-11-04 08:08:00
2:12 AM,57.2,57.2,100,30.07,3.0,Calm,Calm,-,N/A,,Mostly Cloudy,0,2012-11-04 08:12:00
2:21 AM,57.2,57.2,100,30.07,3.0,Calm,Calm,-,N/A,,Scattered Clouds,0,2012-11-04 08:21:00
2:23 AM,57.2,57.2,100,30.07,1.0,WSW,3.5,-,N/A,,Mist,250,2012-11-04 08:23:00
2:30 AM,55.4,55.4,100,30.07,0.5,Calm,Calm,-,N/A,Fog,Fog,0,2012-11-04 08:30:00
2:41 AM,57.2,57.2,100,30.06,1.2,West,3.5,-,N/A,Rain,Light Rain,270,2012-11-04 08:41:00
2:46 AM,57.2,57.2,100,30.06,3.0,Calm,Calm,-,N/A,Rain,Light Rain,0,2012-11-04 08:46:00
2:56 AM,59.0,59.0,100,30.06,5.0,West,3.5,-,N/A,,Clear,280,2012-11-04 08:56:00
3:16 AM,60.8,60.8,100,30.05,1.8,Calm,Calm,-,N/A,,Partly Cloudy,0,2012-11-04 09:16:00
3:24 AM,57.2,57.2,100,30.06,0.8,Calm,Calm,-,N/A,,Mist,0,2012-11-04 09:24:00
3:38 AM,59.0,59.0,100,30.05,0.2,Calm,Calm,-,N/A,Fog,Fog,0,2012-11-04 09:38:00
3:56 AM,63.0,63.0,100,30.06,0.2,Calm,Calm,-,N/A,Fog-Rain,Light Rain,0,2012-11-04 09:56:00
4:49 AM,62.6,62.6,100,30.07,0.5,Calm,Calm,-,N/A,Fog,Fog,0,2012-11-04 10:49:00
4:56 AM,63.0,63.0,100,30.08,0.5,Calm,Calm,-,N/A,Fog,Fog,0,2012-11-04 10:56:00
5:09 AM,62.6,62.6,100,30.07,1.0,WNW,3.5,-,N/A,,Mist,300,2012-11-04 11:09:00
5:15 AM,62.6,62.6,100,30.08,3.0,Calm,Calm,-,N/A,,Mostly Cloudy,0,2012-11-04 11:15:00
5:25 AM,62.6,62.6,100,30.08,5.0,WNW,3.5,-,N/A,Rain,Light Rain,300,2012-11-04 11:25:00
5:48 AM,64.4,64.4,100,30.08,2.5,WNW,4.6,-,N/A,,Mostly Cloudy,290,2012-11-04 11:48:00
5:56 AM,64.0,64.0,100,30.09,1.8,WNW,4.6,-,N/A,,Mostly Cloudy,290,2012-11-04 11:56:00
6:04 AM,64.4,64.4,100,30.09,3.0,WNW,3.5,-,N/A,,Overcast,290,2012-11-04 12:04:00
6:34 AM,64.4,64.4,100,30.09,4.0,Variable,3.5,-,N/A,,Scattered Clouds,0,2012-11-04 12:34:00
6:56 AM,64.0,64.0,100,30.10,5.0,Variable,3.5,-,N/A,,Clear,0,2012-11-04 12:56:00
7:31 AM,66.2,66.2,100,30.10,6.0,WNW,4.6,-,N/A,,Partly Cloudy,290,2012-11-04 13:31:00
7:56 AM,66.9,66.9,100,30.11,6.0,WNW,5.8,-,N/A,,Mostly Cloudy,290,2012-11-04 13:56:00
8:47 AM,68.0,66.2,94,30.11,10.0,NW,9.2,-,N/A,,Mostly Cloudy,320,2012-11-04 14:47:00
8:56 AM,69.1,66.0,90,30.11,10.0,NNW,10.4,17.3,N/A,,Mostly Cloudy,330,2012-11-04 14:56:00
9:08 AM,71.6,66.2,83,30.10,10.0,NW,5.8,-,N/A,,Mostly Cloudy,320,2012-11-04 15:08:00
9:56 AM,75.9,64.9,69,30.10,10.0,NNW,9.2,-,N/A,,Mostly Cloudy,340,2012-11-04 15:56:00
10:56 AM,78.1,63.0,60,30.09,10.0,NNW,9.2,-,N/A,,Mostly Cloudy,340,2012-11-04 16:56:00
11:56 AM,79.0,62.1,56,30.05,10.0,Variable,5.8,-,N/A,,Mostly Cloudy,0,2012-11-04 17:56:00
12:56 PM,80.1,60.1,50,30.03,10.0,NNW,8.1,-,N/A,,Mostly Cloudy,330,2012-11-04 18:56:00
1:56 PM,77.0,64.0,64,30.02,10.0,SW,10.4,-,N/A,,Mostly Cloudy,230,2012-11-04 19:56:00
2:56 PM,78.1,57.9,50,30.01,10.0,NW,6.9,-,N/A,,Mostly Cloudy,320,2012-11-04 20:56:00
3:56 PM,73.9,59.0,59,30.01,10.0,Variable,3.5,-,N/A,,Overcast,0,2012-11-04 21:56:00
4:18 PM,73.4,59.0,61,30.00,10.0,WSW,3.5,-,N/A,Rain,Light Rain,240,2012-11-04 22:18:00
4:40 PM,71.6,60.8,69,30.01,10.0,NW,6.9,-,N/A,,Overcast,320,2012-11-04 22:40:00
4:56 PM,71.1,60.1,68,30.02,10.0,NNW,9.2,-,0.00,,Overcast,330,2012-11-04 22:56:00
5:56 PM,68.0,59.0,73,30.03,10.0,NNW,4.6,-,N/A,,Mostly Cloudy,330,2012-11-04 23:56:00
6:56 PM,66.0,60.1,81,30.04,10.0,NNW,5.8,-,N/A,,Mostly Cloudy,330,2012-11-05 00:56:00
7:56 PM,64.9,59.0,81,30.05,10.0,NNW,4.6,-,N/A,,Mostly Cloudy,330,2012-11-05 01:56:00
8:30 PM,62.6,59.0,88,30.05,10.0,NW,5.8,-,N/A,,Mostly Cloudy,320,2012-11-05 02:30:00
8:56 PM,63.0,57.9,84,30.06,10.0,North,6.9,-,N/A,,Clear,350,2012-11-05 02:56:00
9:56 PM,62.1,57.9,86,30.06,10.0,North,3.5,-,N/A,,Clear,360,2012-11-05 03:56:00
10:56 PM,60.1,57.9,93,30.06,10.0,NNW,3.5,-,N/A,,Clear,340,2012-11-05 04:56:00